Sandspit, British Columbia

7:57 PM PST on February 19, 2017 (GMT -0800)
Sandspit

Weather History for CYZP - June, 2013

Change the Weather History Date:

Thursday, June 27, 2013

  Actual Average Record
Temperature  
Mean Temperature 58 °F -  
Max Temperature 62 °F 62 °F 69 °F (2016)
Min Temperature 55 °F 52 °F 46 °F (1999)
Degree Days  
Heating Degree Days 6    
Growing Degree Days 8 (Base 50)    
Moisture  
Dew Point 54 °F    
Average Humidity 91    
Maximum Humidity 94    
Minimum Humidity 72    
Precipitation  
Precipitation 0.00 in 0.06 in - ()
Sea Level Pressure  
Sea Level Pressure 30.02 in    
Wind  
Wind Speed 16 mph ()    
Max Wind Speed 23 mph    
Max Gust Speed 28 mph    
Visibility 8.7 miles    
Events Rain    
Averages and records for this station are not official NWS values.
T = Trace of Precipitation, MM = Missing Value Source: Averaged Metar Reports

Daily Weather History Graph

Daily Weather History Graph

Search for Another Location

Airport or City:

Trip Planner

Search our weather history database for the weather conditions in past years. The results will help you decide how hot, cold, wet, or windy it might be!

Date:

Astronomy

Jun. 27, 2013 Rise Set
Actual Time 5:21 AM PDT 10:18 PM PDT
Civil Twilight 4:30 AM PDT 11:10 PM PDT
Nautical Twilight 2:59 AM PDT 12:40 AM PDT
Astronomical Twilight Sun does not rise Sun does not rise
Moon 12:02 AM PDT (6/27) 11:18 AM PDT (6/27)
Length of Visible Light 18h 40m
Length of Day
16h 56m
Waning Gibbous, 75% of the Moon is Illuminated
Jun 27
Waning Gibbous
Jun 29
Last Quarter
Jul 8
New
Jul 15
First Quarter
Jul 22
Full

Hourly Weather History & Observations

Time (PDT) Temp. Dew Point Humidity Pressure Visibility Wind Dir Wind Speed Gust Speed Precip Events Conditions
12:00 AM 55.4 °F 53.6 °F 94% 29.94 in 9.0 mi SE 18.4 mph 26.5 mph N/A   Overcast
1:00 AM 55.4 °F 53.6 °F 94% 29.96 in 9.0 mi SE 18.4 mph 24.2 mph N/A   Overcast
1:40 AM 55.4 °F 53.6 °F 94% 29.96 in 9.0 mi SE 15.0 mph 20.7 mph N/A   Mostly Cloudy
2:00 AM 55 °F 53 °F 92% 29.96 in - SE 13.8 mph - -  
2:00 AM 55.4 °F 53.6 °F 94% 29.96 in 9.0 mi SE 16.1 mph - N/A   Overcast
2:50 AM 55.4 °F 53.6 °F 94% 29.96 in 9.0 mi ESE 18.4 mph - N/A   Overcast
3:00 AM 55.4 °F 53.6 °F 94% 29.97 in 9.0 mi SE 18.4 mph - N/A   Overcast
3:01 AM 55.4 °F 53.6 °F 94% 29.97 in 9.0 mi SE 19.6 mph - N/A   Overcast
4:00 AM 55.4 °F 53.6 °F 94% 29.97 in 9.0 mi SE 18.4 mph - N/A   Overcast
4:20 AM 55.4 °F 53.6 °F 94% 29.97 in 6.0 mi SE 18.4 mph - N/A Rain Light Rain
4:26 AM 55.4 °F 53.6 °F 94% 29.97 in 6.0 mi SE 19.6 mph - N/A Rain Light Rain
4:27 AM 55.4 °F 53.6 °F 94% 29.97 in 7.0 mi SE 18.4 mph - N/A Rain Light Rain
4:30 AM 55.4 °F 53.6 °F 94% 29.97 in 9.0 mi SE 18.4 mph - N/A Rain Light Rain
4:33 AM 55.4 °F 53.6 °F 94% 29.97 in 9.0 mi SE 17.3 mph 23.0 mph N/A   Mostly Cloudy
4:37 AM 55.4 °F 53.6 °F 94% 29.97 in 9.0 mi SE 17.3 mph - N/A   Overcast
4:43 AM 55.4 °F 53.6 °F 94% 29.97 in 9.0 mi SE 17.3 mph - N/A   Overcast
4:45 AM 55.4 °F 53.6 °F 94% 29.97 in 9.0 mi SE 17.3 mph - N/A   Overcast
4:48 AM 55.4 °F 53.6 °F 94% 29.97 in 9.0 mi SE 16.1 mph 21.9 mph N/A   Overcast
4:51 AM 55.4 °F 53.6 °F 94% 29.97 in 9.0 mi SE 17.3 mph - N/A   Overcast
5:00 AM 55 °F 54 °F 94% 29.96 in - SE 16.1 mph - -  
5:00 AM 55.4 °F 53.6 °F 94% 29.97 in 8.0 mi SE 19.6 mph - N/A   Overcast
5:31 AM 55.4 °F 53.6 °F 94% 29.98 in 6.0 mi SE 18.4 mph - N/A Rain Light Rain
5:49 AM 55.4 °F 53.6 °F 94% 29.98 in 8.0 mi SE 18.4 mph - N/A   Overcast
6:00 AM 55.4 °F 53.6 °F 94% 29.98 in 8.0 mi SE 17.3 mph 23.0 mph N/A   Overcast
6:47 AM 55.4 °F 53.6 °F 94% 29.98 in 9.0 mi ESE 17.3 mph 23.0 mph N/A   Overcast
7:00 AM 55.4 °F 53.6 °F 94% 29.98 in 9.0 mi ESE 20.7 mph - N/A   Overcast
7:25 AM 55.4 °F 53.6 °F 94% 29.99 in 9.0 mi ESE 21.9 mph 27.6 mph N/A   Overcast
7:33 AM 55.4 °F 53.6 °F 94% 29.99 in 9.0 mi ESE 21.9 mph 27.6 mph N/A   Overcast
7:51 AM 55.4 °F 53.6 °F 94% 29.99 in 9.0 mi ESE 20.7 mph 26.5 mph N/A Rain Light Rain
8:00 AM 56 °F 54 °F 91% 29.99 in - ESE 16.1 mph - -  
8:00 AM 55.4 °F 53.6 °F 94% 29.99 in 9.0 mi ESE 19.6 mph 26.5 mph N/A Rain Light Rain
8:09 AM 55.4 °F 53.6 °F 94% 29.99 in 9.0 mi ESE 18.4 mph 25.3 mph N/A   Mostly Cloudy
8:14 AM 57.2 °F 55.4 °F 94% 29.99 in 9.0 mi ESE 19.6 mph - N/A   Mostly Cloudy
8:34 AM 57.2 °F 55.4 °F 94% 30.00 in 9.0 mi ESE 18.4 mph - N/A   Overcast
8:39 AM 57.2 °F 53.6 °F 88% 30.00 in 9.0 mi ESE 19.6 mph - N/A   Overcast
8:41 AM 57.2 °F 53.6 °F 88% 30.00 in 9.0 mi ESE 19.6 mph - N/A   Overcast
8:42 AM 57.2 °F 53.6 °F 88% 30.00 in 9.0 mi ESE 20.7 mph - N/A Rain Light Rain
8:53 AM 59.0 °F 53.6 °F 82% 30.00 in 9.0 mi ESE 21.9 mph 27.6 mph N/A   Mostly Cloudy
8:58 AM 57.2 °F 53.6 °F 88% 30.00 in 9.0 mi ESE 21.9 mph 27.6 mph N/A   Mostly Cloudy
9:00 AM 57.2 °F 53.6 °F 88% 30.00 in 9.0 mi ESE 23.0 mph - N/A   Mostly Cloudy
9:01 AM 57.2 °F 53.6 °F 88% 30.00 in 9.0 mi ESE 23.0 mph - N/A   Mostly Cloudy
9:50 AM 57.2 °F 55.4 °F 94% 30.01 in 8.0 mi ESE 19.6 mph 26.5 mph N/A Rain Light Rain
10:00 AM 57.2 °F 53.6 °F 88% 30.01 in 9.0 mi ESE 18.4 mph 24.2 mph N/A Rain Light Rain
10:08 AM 57.2 °F 53.6 °F 88% 30.01 in 9.0 mi ESE 19.6 mph 25.3 mph N/A   Overcast
10:14 AM 57.2 °F 55.4 °F 94% 30.01 in 9.0 mi ESE 19.6 mph 25.3 mph N/A   Overcast
10:37 AM 59.0 °F 53.6 °F 82% 30.01 in 9.0 mi ESE 18.4 mph - N/A   Mostly Cloudy
11:00 AM 59.0 °F 53.6 °F 82% 30.01 in 9.0 mi ESE 18.4 mph 24.2 mph N/A   Mostly Cloudy
11:41 AM 57.2 °F 53.6 °F 88% 30.03 in 4.0 mi ESE 20.7 mph 26.5 mph N/A   Overcast
11:43 AM 57.2 °F 55.4 °F 94% 30.03 in 4.0 mi ESE 19.6 mph 26.5 mph N/A Rain Light Rain
11:51 AM 57.2 °F 55.4 °F 94% 30.03 in 9.0 mi ESE 21.9 mph - N/A Rain Light Rain
11:53 AM 57.2 °F 55.4 °F 94% 30.03 in 9.0 mi ESE 19.6 mph 25.3 mph N/A Rain Light Rain
11:57 AM 57.2 °F 55.4 °F 94% 30.03 in 9.0 mi ESE 19.6 mph - N/A Rain Light Rain
12:00 PM 57.2 °F 55.4 °F 94% 30.03 in 9.0 mi ESE 19.6 mph - N/A Rain Light Rain
12:06 PM 57.2 °F 55.4 °F 94% 30.03 in 9.0 mi ESE 17.3 mph 23.0 mph N/A   Overcast
1:00 PM 57.2 °F 53.6 °F 88% 30.04 in 9.0 mi SE 11.5 mph - N/A   Overcast
2:00 PM 60 °F 53 °F 72% 30.04 in - SE 8.1 mph - -  
2:00 PM 60.8 °F 53.6 °F 77% 30.05 in 9.0 mi ESE 8.1 mph - N/A   Mostly Cloudy
2:43 PM 60.8 °F 53.6 °F 77% 30.05 in 9.0 mi ESE 9.2 mph - N/A Rain Light Rain
2:58 PM 59.0 °F 53.6 °F 82% 30.06 in 9.0 mi ESE 11.5 mph - N/A   Overcast
3:00 PM 59.0 °F 53.6 °F 82% 30.05 in 9.0 mi ESE 10.4 mph - N/A   Overcast
3:25 PM 59.0 °F 53.6 °F 82% 30.06 in 9.0 mi ESE 10.4 mph - N/A Rain Light Rain
3:41 PM 59.0 °F 53.6 °F 82% 30.06 in 9.0 mi SE 12.7 mph - N/A   Overcast
4:00 PM 59.0 °F 53.6 °F 82% 30.06 in 9.0 mi SE 13.8 mph - N/A   Overcast
4:07 PM 59.0 °F 53.6 °F 82% 30.06 in 9.0 mi SE 15.0 mph - N/A Rain Light Rain
4:30 PM 59.0 °F 53.6 °F 82% 30.07 in 9.0 mi SE 17.3 mph - N/A   Overcast
5:00 PM 58 °F 54 °F 81% 30.07 in - SE 12.7 mph - -  
5:00 PM 59.0 °F 53.6 °F 82% 30.08 in 9.0 mi SE 16.1 mph - N/A   Overcast
5:15 PM 57.2 °F 55.4 °F 94% 30.08 in 9.0 mi SE 15.0 mph - N/A Rain Light Rain
5:43 PM 57.2 °F 55.4 °F 94% 30.07 in 9.0 mi SE 13.8 mph - N/A   Overcast
6:00 PM 57.2 °F 55.4 °F 94% 30.08 in 9.0 mi ESE 16.1 mph 21.9 mph N/A   Overcast
6:27 PM 57.2 °F 55.4 °F 94% 30.08 in 9.0 mi SE 18.4 mph 24.2 mph N/A   Overcast
6:37 PM 57.2 °F 55.4 °F 94% 30.08 in 9.0 mi SE 17.3 mph - N/A Rain Light Rain
6:49 PM 57.2 °F 53.6 °F 88% 30.07 in 9.0 mi SE 17.3 mph - N/A   Mostly Cloudy
7:00 PM 57.2 °F 53.6 °F 88% 30.08 in 9.0 mi SE 18.4 mph - N/A   Overcast
7:16 PM 57.2 °F 53.6 °F 88% 30.07 in 9.0 mi SE 17.3 mph - N/A   Overcast
8:00 PM 56 °F 54 °F 90% 30.08 in - ESE 11.5 mph - -  
8:00 PM 55.4 °F 53.6 °F 94% 30.09 in 9.0 mi ESE 13.8 mph - N/A   Overcast
8:31 PM 55.4 °F 53.6 °F 94% 30.10 in 9.0 mi SSE 13.8 mph - N/A   Overcast
9:00 PM 55.4 °F 53.6 °F 94% 30.10 in 9.0 mi SE 11.5 mph - N/A   Overcast
9:58 PM 55.4 °F 53.6 °F 94% 30.11 in 9.0 mi SE 16.1 mph - N/A   Overcast
10:00 PM 55.4 °F 53.6 °F 94% 30.11 in 9.0 mi SE 16.1 mph - N/A   Overcast
10:45 PM 55.4 °F 53.6 °F 94% 30.13 in 9.0 mi SE 17.3 mph - N/A   Overcast
10:51 PM 55.4 °F 53.6 °F 94% 30.13 in 9.0 mi SE 19.6 mph - N/A Rain Light Rain
11:00 PM 55 °F 54 °F 94% 30.12 in - SE 15.0 mph - -  
11:00 PM 55.4 °F 53.6 °F 94% 30.13 in 9.0 mi SE 18.4 mph - N/A Rain Light Rain
11:02 PM 55.4 °F 53.6 °F 94% 30.13 in 9.0 mi SE 18.4 mph - N/A   Overcast